Regional Weather Roundup
Issued by NWS

Home | Current Version | Previous Version | Graphics & Text | Print | Product List | Glossary On
Versions: 1 2 3 4 5 6 7 8 9 10 11 12 13 14 15 16 17 18 19 20 21 22 23 24 25 26 27 28 29 30 31 32 33 34 35 36 37 38 39 40 41 42 43 44 45 46 47 48 49 50
000
ASUS43 KIND 161109
RWRIN

WEATHER ROUNDUP FOR INDIANA
NATIONAL WEATHER SERVICE INDIANAPOLIS IN
700 AM EDT MON OCT 16 2017

NOTE: "FAIR" INDICATES FEW OR NO CLOUDS BELOW 12,000 FEET WITH NO
SIGNIFICANT WEATHER AND/OR OBSTRUCTIONS TO VISIBILITY.

* - STATION DOES NOT REPORT WEATHER SUCH AS PRECIPITATION OR FOG.

+ - STATION NOT QUALITY CONTROLLED BY THE NATIONAL WEATHER SERVICE.
    USE DATA WITH CAUTION...ESPECIALLY DEWPOINT AND RELATIVE
    HUMIDITY OBSERVATIONS.

INZ001>003-010>013-019-020-161200-
NORTHWEST INDIANA

CITY           SKY/WX    TMP DP  RH WIND       PRES   REMARKS
GARY /AIRPORT/ PTCLDY    45  41  87 W5        30.31R
KNOX *+        CLEAR     41  39  93 W6        30.28R
LA PORTE +     CLEAR     43  40  91 W5        30.29R
MICHIGAN CITY+ PTCLDY    46  37  71 CALM      30.28R
MONTICELLO +   CLEAR     40  39  96 W3        30.30R
RENSSELAER +   CLEAR     39  36  87 W5        30.31R
VALPARAISO     CLEAR     43  41  93 W5        30.29R

$$

LMZ046-743>745-161200-
SOUTHERN LAKE MICHIGAN

STATION/POSITION TIME  TEMP    WIND        PRES    WAVE
                       AIR SEA DIR/SP/G            HT
                 (UTC) (F)     (DEG/KT/KT) (MB)    (FT)
BURNS HARBOR     1040   52     280/ 13/ 16 1025.7R
MICHIGAN CITY    1040   52     280/ 14/ 15   N/A
5NW MICH CITY    1100   52 57  300/ 12/ 16   N/A     5

$$

INZ004-005-014>016-021>024-161200-
NORTH CENTRAL INDIANA

CITY           SKY/WX    TMP DP  RH WIND       PRES   REMARKS
ELKHART        CLEAR     41  41 100 CALM      30.26
GOSHEN         CLEAR     42  40  92 W5        30.26R
LOGANSPORT +   CLEAR     41  37  87 W3        30.30R
PERU/GRISSOM   CLEAR     42  40  94 W6        30.28R
SOUTH BEND     CLEAR     40  40 100 W7        30.27R
WARSAW +       CLEAR     43  43 100 CALM      30.27R

$$

INZ006>009-017-018-025>027-161200-
NORTHEAST INDIANA

CITY           SKY/WX    TMP DP  RH WIND       PRES   REMARKS
AUBURN +       MOCLDY    45  43  93 CALM      30.26S
FORT WAYNE     MOCLDY    47  44  90 CALM      30.27S
HUNTINGTON +   CLEAR     44  43  96 W3        30.27R
KENDALLVILLE + PTCLDY    44  44 100 CALM      30.26R

$$

INZ028-029-035-036-043>045-051>053-161200-
WEST CENTRAL INDIANA

CITY           SKY/WX    TMP DP  RH WIND       PRES   REMARKS
CRAWFORDSVL +  CLEAR     37  37 100 W3        30.31S
GREENCASTLE +  CLEAR     43  39  87 CALM      30.31S
LAFAYETTE      CLEAR     40  40 100 W3        30.31R
TERRE HAUTE    CLEAR     40  38  93 CALM      30.33R

$$

INZ030>032-037>040-046>048-054>057-064-065-161200-
CENTRAL INDIANA

CITY           SKY/WX    TMP DP  RH WIND       PRES   REMARKS
CP ATTERBURY + MOCLDY    45  41  87 NW5       30.30S
COLUMBUS       MOCLDY    46  41  81 NW7       30.30
FISHERS *+     PTCLDY    43  43 100 NW3       30.30R
FRANKFORT +    MOCLDY    44  41  89 NW6       30.31S
GREENWOOD *+   CLOUDY    49  44  82 CALM      30.30R
INDIANAPOLIS   MOCLDY    48  42  80 NW9       30.30R
-EAGLE CREEK   CLOUDY    49  41  74 NW9       30.29R
KOKOMO +       CLEAR     43  41  93 W5        30.29
MT COMFORT *+  PTCLDY    43  43 100 NW5       30.29R
SHELBYVILLE    CLOUDY    47  42  83 NW3       30.28R
ZIONSVILLE +   PTCLDY    44  41  90 NW6       30.30R

$$

INZ033-034-041-042-049-050-058-059-161200-
EAST CENTRAL INDIANA

CITY           SKY/WX    TMP DP  RH WIND       PRES   REMARKS
MUNCIE         CLOUDY    49  46  90 CALM      30.28R
RICHMOND +     MOCLDY    43  43 100 CALM      30.27R

$$

INZ060-061-067>069-081>083-085>088-161200-
SOUTHWEST INDIANA

CITY           SKY/WX    TMP DP  RH WIND       PRES   REMARKS
EVANSVILLE     CLEAR     46  40  79 N7        30.34R
HUNTINGBURG +  PTCLDY    45  42  89 N3        30.33R
WASHINGTON +   CLEAR     43  40  87 NW3       30.32S

$$

INZ062-063-066-070>080-084-089>092-161200-
SOUTH CENTRAL AND SOUTHEAST INDIANA

CITY           SKY/WX    TMP DP  RH WIND       PRES   REMARKS
BEDFORD +      MOCLDY    45  39  81 CALM      30.31R
BLOOMINGTON    CLEAR     44  39  82 CALM      30.31R
MADISON *+     MOCLDY    45  43  93 NW3       30.30R
NORTH VERNON + CLOUDY    45  43  93 NW3       30.30R
SEYMOUR +      MOCLDY    48  43  81 NW5       30.30R

$$





USA.gov is the U.S. government's official web portal to all federal, state and local government web resources and services.